NOAA 16 DEB

Satellite information

Favourite Embed

Satellite Type and Status

DEBRISIN ORBIT

Key statistics

Satellite NOAA 16 DEB at a glance.

Uptime

9115

Days in orbit

Revolutions

≈ 14.2

Per day

Orbit

SSO

Sun Synchronous Orbit

Inclination

98.7

Latest

Satellite identification and parameters

Extended collection of information and parameters for NOAA 16 DEB.

Object identification

Identified? True

Debris? True

Object name: NOAA 16 DEB

International designator: 2000-055DW

Object number (NORAD): 41217

Object ID (CCSDS): 41217

Country: UNITED STATES OF AMERICA (US)

Current information (Y/N): Y

RCS size: SMALL

Orbital parameters

Period: 101.631 minutes

Inclination: 98.7177 deg

SMA: 7214.045 km

Apoapsis: 864.154 km

Periapsis: 807.666 km

RAAN: 276.0634 deg

Eccentricy: 0.0039151

Argument of periapsis: 8.7809 deg

Mean anomaly: 351.4042 deg

Mean motion: 14.16884608 rev/day

Mean motion (dot): 0.00005039 rev/day2

B* drag term: 0.0025143857 1/REarth

Two-line elements (TLE)

Creation date: Sept. 4, 2025, 10:13 a.m.

Reference frame: TEME

Reference center: EARTH

Epoch: Sept. 4, 2025, 1 a.m. UTC

TLE line 0: 0 NOAA 16 DEB

TLE line 1: 1 41217U 00055DW 25247.04192261 .00005039 00000-0 25144-2 0 9995

TLE line 2: 2 41217 98.7177 276.0634 0039151 8.7809 351.4042 14.16884608498821

Live tracking on map

Real-time ground track for satellite NOAA 16 DEB.

In-orbit conjunctions

A list of the most updated potential collisions computed for object NOAA 16 DEB.

Target Orbit TCA Probability of collision Miss distance Type
THOR ABLESTAR DEB LEO 2025-08-08 06:22:08 0.0003335256 30.0 (m) DEBRIS
CZ-6A DEB LEO 2025-06-10 16:00:45 0.000117416 480.0 (m) DEBRIS
SL-16 DEB LEO 2025-02-14 18:44:31 0.0001572059 179.0 (m) DEBRIS
METEOR 1-25 LEO 2024-10-31 16:53:18 0.00010334 991.0 (m) PAYLOAD

Associated space launch

The NOAA K, L and M POES satellites begin the fifth generation of improved environmental monitoring in support of NOAA missions. The instrument payload has significant improvements and additions/deletions. The instrument changes have effected the spacecraft subsystems and data formats.

NOAA 16 DEB was lifted into orbit during the mission ‘Titan II SLV | NOAA 16’, on board a Titan II SLV space rocket.

The launch took place on Sept. 21, 2000, 10:22 a.m. from Space Launch Complex 4W.

For more information about the launch, click the button.

Launch to space Titan II SLV | NOAA 16
Titan II SLV | NOAA 16

Agency: N/A

Status: Launch Successful

Launch date: Sept. 21, 2000, 10:22 a.m. UTC

Rocket: Titan II SLV

Launch pad: Space Launch Complex 4W

Location: Vandenberg SFB, CA, USA

...

Latest news about this satellite

There are no fresh news available about this satellite. Check back as we update our databases every day.


Newsletter sign-up

Weekly statistics, charts and insights to help you stay on top of the space industry.